Find OneWeb SL0394

NORAD ID: 50474 Int'l Des: 2021-132 Owner: ONEWEBN Country: UK Constellation: oneweb operational
LEOCIRCULARPOLARONEWEB_TYPE

实时位置

正在加载3D地球...

关于 OneWeb SL0394

正在加载描述...

即将过境

Passes for default location (London). Set your location on the main map for personalized predictions.

高度历史

Loading altitude history...

两行轨道根数

1 50474U 21132F 26127.04894001 -.00000066 00000-0 -19991-3 0 9999
2 50474 87.9178 343.6278 0002171 81.7849 278.3530 13.18688732216175
Epoch: May 7, 2026 • Age: 10 hours

当前状态

高度 1202.0 km
速度 7.26 km/s
星下点 87.61°N, 76.87°E
发射日期 Dec 27, 2021
运行时间 4.3 years
类型 internet

技术详情

分类 Payload
质量 148.00 kg
干质量 140.00 kg
总质量 148.00 kg
长度 1.30 m
直径 1.00 m
跨度 5.00 m
形状 Trapezoid+2 pan
制造商 ONEWUS
平台类型 ARROW
阶段状态 In Orbit
所有者/国家 ONEWEBN/UK

Most Searched